Temp
-21 -21 -21 -21 -20 -20 -22 -23 -23 -22 -21 -21 -20 -17 -17 -17 -16 -15 -15 -14 -13 -12 -12 -11 -11 -11 -11 -11 -10 -10 -10 -10 -10 -10 -10 -10 -10 -10 -10 -9 -9 -9 -9 -9 -8
-22 -21 -21 -21 -20 -21 -23 -23 -23 -22 -22 -21 -19 -18 -17 -17 -16 -16 -15 -14 -14 -13 -12 -12 -11 -11 -11 -11 -11 -11 -10 -10 -10 -10 -10 -10 -10 -10 -10 -9 -9 -9 -9 -9 -9
-21 -20 -21 -20 -20 -22 -24 -24 -23 -22 -22 -21 -20 -19 -18 -18 -17 -16 -16 -15 -14 -13 -12 -12 -12 -12 -11 -11 -11 -11 -10 -10 -10 -10 -10 -10 -10 -10 -10 -9 -9 -9 -9 -9 -9
-20 -20 -20 -20 -21 -23 -24 -24 -23 -22 -22 -21 -21 -20 -17 -18 -17 -16 -16 -15 -14 -14 -13 -12 -12 -12 -12 -12 -12 -11 -11 -11 -11 -10 -10 -10 -10 -10 -10 -9 -9 -9 -9 -9 -9
-20 -20 -21 -21 -21 -23 -24 -24 -23 -22 -21 -21 -21 -20 -20 -17 -17 -16 -16 -15 -15 -14 -14 -13 -12 -12 -13 -12 -12 -12 -11 -11 -11 -11 -11 -10 -10 -10 -10 -10 -10 -9 -9 -9 -9
-20 -21 -21 -20 -20 -22 -23 -23 -22 -21 -21 -20 -20 -19 -18 -17 -17 -16 -16 -15 -15 -14 -14 -13 -13 -12 -13 -13 -13 -12 -11 -11 -11 -11 -10 -10 -10 -10 -10 -10 -10 -10 -10 -10 -10
-20 -20 -20 -21 -20 -19 -22 -22 -21 -21 -21 -20 -20 -17 -17 -17 -17 -16 -16 -15 -15 -15 -14 -14 -13 -13 -13 -12 -12 -12 -11 -11 -11 -11 -11 -11 -11 -11 -11 -11 -11 -10 -11 -11 -10
-18 -19 -19 -19 -19 -20 -21 -21 -20 -20 -20 -20 -19 -18 -17 -17 -16 -16 -16 -15 -15 -15 -14 -14 -14 -13 -13 -12 -12 -12 -11 -11 -11 -11 -11 -11 -11 -11 -11 -11 -11 -11 -11 -11 -10
-17 -17 -17 -18 -19 -20 -19 -19 -19 -19 -19 -19 -18 -18 -17 -17 -17 -16 -16 -15 -15 -15 -14 -14 -14 -13 -13 -12 -12 -12 -12 -11 -11 -12 -11 -11 -11 -11 -11 -11 -11 -11 -11 -11 -10
-17 -17 -16 -16 -17 -18 -19 -19 -18 -18 -18 -18 -18 -17 -17 -17 -17 -16 -16 -16 -15 -15 -14 -14 -14 -13 -13 -13 -12 -12 -12 -12 -12 -12 -11 -11 -12 -11 -11 -11 -11 -11 -11 -10 -10
-17 -16 -16 -16 -15 -16 -17 -18 -17 -17 -18 -18 -18 -18 -17 -17 -17 -17 -16 -16 -15 -15 -15 -14 -14 -14 -13 -13 -13 -13 -12 -12 -12 -12 -12 -12 -12 -12 -11 -12 -12 -11 -11 -11 -10
-16 -16 -16 -17 -16 -16 -16 -17 -17 -17 -17 -17 -17 -17 -17 -17 -17 -16 -17 -16 -16 -15 -15 -14 -14 -14 -14 -14 -13 -13 -13 -13 -12 -12 -12 -12 -12 -12 -12 -11 -11 -11 -11 -11 -11
-16 -16 -16 -17 -16 -16 -16 -16 -16 -16 -16 -16 -16 -16 -16 -16 -17 -17 -17 -17 -16 -16 -15 -15 -14 -14 -14 -14 -14 -13 -13 -13 -13 -13 -12 -12 -11 -12 -12 -12 -11 -11 -11 -10 -10
-15 -16 -17 -16 -17 -17 -17 -16 -16 -17 -16 -16 -17 -17 -16 -16 -16 -16 -17 -17 -16 -16 -15 -15 -15 -14 -14 -14 -14 -13 -14 -13 -13 -13 -13 -12 -11 -12 -12 -12 -11 -11 -11 -11 -11
-14 -15 -16 -17 -17 -16 -16 -17 -17 -17 -16 -17 -17 -18 -18 -17 -16 -16 -16 -16 -16 -16 -16 -16 -15 -15 -15 -14 -14 -14 -14 -14 -14 -13 -13 -13 -12 -10 -12 -12 -12 -11 -11 -11 -12
-14 -14 -15 -16 -16 -17 -16 -16 -16 -16 -16 -17 -17 -18 -18 -18 -18 -17 -17 -16 -16 -17 -16 -16 -15 -15 -15 -15 -15 -14 -14 -14 -14 -13 -13 -13 -12 -11 -12 -12 -12 -12 -12 -12 -12
-14 -14 -14 -15 -15 -16 -16 -16 -16 -16 -16 -17 -17 -17 -17 -18 -18 -18 -17 -17 -17 -16 -16 -16 -16 -15 -15 -15 -15 -15 -14 -14 -14 -14 -13 -13 -12 -12 -12 -12 -12 -12 -12 -12 -13
-13 -14 -14 -14 -15 -15 -16 -16 -16 -17 -17 -17 -17 -17 -17 -17 -17 -17 -17 -17 -17 -17 -16 -16 -16 -16 -15 -15 -15 -15 -15 -15 -14 -14 -14 -13 -12 -12 -12 -12 -12 -12 -13 -13 -13
-13 -13 -13 -14 -14 -15 -15 -15 -16 -17 -17 -17 -17 -17 -17 -17 -17 -17 -17 -17 -17 -16 -16 -16 -16 -16 -15 -15 -15 -15 -15 -15 -14 -14 -13 -13 -13 -13 -13 -13 -13 -13 -14 -14 -14
-12 -13 -13 -13 -14 -14 -15 -14 -15 -15 -16 -16 -17 -17 -17 -16 -16 -16 -16 -16 -16 -16 -16 -16 -16 -16 -16 -16 -15 -15 -15 -15 -15 -14 -14 -13 -14 -13 -14 -14 -14 -14 -14 -14 -14
-12 -12 -13 -13 -13 -13 -14 -14 -14 -15 -15 -15 -16 -16 -16 -16 -16 -16 -16 -16 -16 -16 -16 -16 -16 -16 -16 -16 -15 -15 -15 -15 -15 -15 -14 -14 -14 -14 -14 -14 -14 -13 -13 -13 -14
-12 -12 -12 -13 -13 -13 -13 -13 -14 -14 -14 -14 -15 -15 -15 -16 -16 -16 -16 -16 -16 -16 -16 -16 -16 -15 -16 -15 -15 -15 -15 -15 -15 -14 -14 -14 -14 -14 -13 -13 -13 -13 -13 -14 -14
-12 -13 -13 -13 -13 -13 -13 -13 -13 -13 -13 -14 -14 -14 -15 -15 -15 -15 -15 -15 -16 -16 -15 -15 -15 -15 -15 -15 -15 -15 -15 -15 -14 -14 -14 -13 -13 -13 -13 -13 -13 -13 -13 -13 -13
-12 -13 -13 -13 -13 -13 -13 -13 -13 -13 -14 -14 -13 -14 -14 -14 -14 -15 -15 -15 -15 -15 -15 -15 -15 -14 -14 -14 -14 -14 -14 -14 -13 -14 -13 -14 -13 -13 -13 -13 -13 -13 -13 -13 -14
-13 -13 -13 -13 -13 -13 -13 -13 -13 -13 -13 -13 -13 -14 -13 -13 -14 -14 -14 -14 -14 -14 -14 -14 -14 -14 -14 -14 -14 -14 -14 -13 -13 -14 -13 -14 -13 -15 -13 -12 -13 -13 -13 -13 -13
-14 -13 -13 -13 -13 -13 -13 -13 -13 -13 -13 -13 -13 -13 -13 -13 -13 -13 -13 -13 -14 -14 -14 -14 -14 -14 -14 -13 -13 -14 -13 -13 -13 -13 -13 -13 -13 -13 -13 -13 -13 -13 -13 -13 -13
-14 -14 -14 -14 -13 -13 -13 -13 -13 -13 -13 -13 -13 -13 -13 -13 -14 -13 -13 -13 -13 -13 -13 -13 -13 -13 -13 -13 -13 -13 -13 -13 -13 -13 -13 -13 -13 -13 -13 -12 -12 -13 -13 -13 -13
Height
5606 5595 5585 5575 5565 5555 5551 5553 5564 5577 5589 5601 5607 5623 5634 5641 5654 5671 5687 5702 5718 5731 5742 5754 5765 5774 5783 5792 5799 5806 5812 5818 5823 5827 5832 5835 5839 5842 5844 5846 5848 5849 5852 5853 5854
5602 5591 5583 5574 5562 5550 5547 5551 5563 5576 5589 5599 5611 5618 5630 5639 5652 5671 5688 5702 5717 5729 5739 5751 5761 5770 5780 5788 5795 5802 5809 5815 5819 5823 5827 5830 5834 5837 5840 5842 5843 5845 5847 5848 5849
5600 5590 5582 5570 5561 5549 5546 5553 5565 5577 5591 5600 5610 5619 5629 5640 5652 5672 5687 5700 5714 5728 5739 5748 5757 5767 5776 5784 5791 5798 5805 5810 5814 5818 5822 5826 5829 5832 5835 5837 5839 5840 5841 5843 5844
5604 5594 5584 5572 5559 5551 5553 5560 5570 5583 5594 5603 5615 5624 5637 5647 5657 5672 5685 5698 5712 5726 5737 5746 5754 5764 5772 5781 5788 5794 5800 5805 5810 5814 5818 5821 5824 5827 5830 5832 5834 5834 5835 5836 5838
5608 5598 5589 5578 5568 5561 5564 5568 5579 5591 5603 5611 5619 5631 5640 5650 5661 5675 5688 5700 5712 5725 5734 5744 5753 5761 5770 5780 5785 5791 5796 5801 5805 5809 5812 5816 5819 5821 5824 5826 5827 5829 5830 5831 5832
5616 5606 5599 5591 5585 5575 5577 5582 5592 5603 5611 5619 5628 5637 5649 5657 5666 5677 5690 5702 5713 5724 5732 5742 5750 5758 5768 5775 5782 5787 5792 5796 5800 5804 5807 5811 5813 5815 5818 5820 5821 5823 5825 5826 5827
5628 5617 5610 5609 5603 5596 5596 5596 5602 5611 5620 5627 5633 5647 5657 5663 5671 5682 5692 5703 5713 5722 5731 5740 5749 5757 5764 5771 5778 5784 5789 5792 5797 5800 5803 5806 5809 5810 5813 5815 5816 5818 5820 5821 5823
5644 5632 5625 5624 5619 5617 5615 5619 5619 5621 5629 5636 5643 5650 5658 5666 5673 5684 5695 5705 5715 5723 5732 5740 5748 5755 5762 5769 5775 5780 5784 5790 5793 5796 5800 5803 5805 5806 5808 5811 5812 5814 5816 5818 5819
5658 5650 5644 5642 5639 5637 5632 5634 5634 5633 5636 5641 5648 5657 5665 5671 5679 5687 5698 5707 5716 5725 5733 5741 5747 5754 5761 5767 5772 5776 5781 5786 5790 5792 5795 5799 5800 5802 5805 5807 5808 5810 5812 5812 5813
5672 5665 5660 5659 5654 5653 5650 5649 5649 5649 5651 5655 5661 5668 5672 5678 5686 5693 5701 5710 5718 5726 5733 5741 5748 5753 5759 5765 5770 5774 5778 5782 5786 5789 5791 5794 5798 5799 5801 5803 5805 5805 5806 5807 5807
5687 5681 5675 5667 5666 5664 5665 5664 5664 5665 5665 5669 5672 5675 5680 5685 5691 5698 5705 5712 5719 5727 5734 5741 5748 5753 5758 5764 5768 5771 5776 5779 5783 5785 5788 5790 5794 5795 5796 5799 5800 5800 5800 5800 5801
5698 5692 5686 5681 5675 5673 5672 5674 5674 5677 5676 5677 5679 5682 5687 5691 5696 5702 5709 5715 5722 5728 5734 5741 5746 5752 5757 5762 5766 5769 5773 5776 5779 5781 5783 5785 5790 5790 5790 5793 5794 5794 5794 5794 5795
5707 5701 5696 5691 5688 5683 5681 5681 5681 5682 5685 5685 5687 5690 5692 5697 5700 5706 5711 5716 5722 5729 5734 5740 5746 5751 5755 5760 5764 5767 5770 5773 5776 5777 5779 5781 5784 5787 5787 5786 5786 5786 5787 5787 5786
5716 5710 5705 5700 5696 5693 5691 5688 5687 5688 5689 5690 5691 5693 5696 5700 5704 5709 5714 5720 5724 5729 5734 5739 5744 5749 5753 5757 5761 5764 5766 5769 5771 5773 5775 5777 5776 5783 5782 5781 5780 5779 5779 5778 5777
5726 5719 5712 5707 5704 5701 5699 5697 5696 5695 5695 5695 5694 5695 5698 5702 5707 5710 5714 5721 5725 5729 5734 5739 5743 5747 5751 5755 5758 5761 5763 5766 5768 5769 5770 5772 5770 5774 5775 5775 5774 5773 5771 5770 5768
5733 5728 5721 5716 5711 5708 5707 5706 5705 5704 5701 5701 5701 5701 5702 5704 5707 5711 5715 5720 5726 5730 5733 5737 5742 5746 5749 5752 5755 5758 5760 5762 5763 5764 5764 5766 5765 5768 5767 5768 5766 5765 5764 5762 5760
5739 5735 5730 5725 5719 5714 5713 5712 5712 5709 5709 5708 5707 5707 5707 5707 5709 5713 5717 5721 5725 5730 5733 5737 5740 5743 5747 5750 5752 5754 5756 5756 5758 5758 5758 5759 5758 5761 5760 5759 5758 5756 5754 5753 5751
5745 5740 5736 5732 5728 5723 5718 5717 5716 5714 5713 5713 5713 5713 5713 5713 5714 5716 5719 5722 5725 5728 5732 5735 5739 5741 5744 5746 5748 5749 5751 5752 5751 5752 5753 5753 5753 5754 5753 5752 5750 5748 5746 5745 5743
5750 5746 5741 5737 5734 5730 5727 5723 5721 5720 5718 5718 5718 5718 5718 5719 5719 5720 5722 5724 5726 5728 5732 5734 5736 5738 5741 5743 5745 5745 5747 5747 5747 5747 5747 5748 5749 5747 5745 5744 5743 5741 5740 5740 5739
5752 5750 5746 5741 5739 5736 5734 5731 5728 5725 5723 5722 5721 5721 5721 5722 5724 5725 5726 5727 5728 5730 5731 5733 5735 5736 5738 5740 5741 5742 5743 5744 5743 5742 5742 5743 5742 5740 5740 5739 5739 5738 5737 5737 5736
5752 5751 5749 5746 5743 5741 5738 5736 5734 5732 5730 5728 5727 5725 5725 5724 5725 5726 5728 5729 5729 5730 5732 5733 5734 5736 5736 5737 5738 5739 5739 5739 5739 5739 5737 5737 5739 5737 5736 5736 5735 5735 5734 5733 5731
5751 5751 5749 5748 5746 5744 5741 5740 5738 5736 5735 5734 5732 5731 5729 5728 5728 5727 5728 5728 5728 5729 5729 5731 5732 5732 5733 5733 5734 5734 5734 5734 5734 5735 5734 5734 5736 5734 5734 5733 5733 5732 5730 5729 5728
5750 5750 5749 5748 5747 5745 5743 5742 5741 5739 5737 5734 5734 5734 5733 5731 5731 5730 5730 5730 5729 5729 5729 5730 5730 5730 5731 5732 5732 5731 5731 5731 5731 5731 5732 5731 5732 5731 5731 5730 5729 5728 5727 5726 5724
5749 5748 5747 5746 5746 5744 5743 5742 5741 5741 5740 5738 5737 5736 5734 5734 5733 5732 5732 5732 5731 5731 5731 5730 5729 5729 5730 5729 5729 5729 5729 5729 5728 5729 5729 5730 5729 5728 5727 5725 5724 5724 5722 5721 5718
5747 5746 5745 5744 5744 5743 5742 5741 5740 5740 5739 5739 5738 5737 5736 5735 5735 5734 5733 5732 5731 5731 5730 5730 5730 5730 5728 5727 5727 5727 5727 5726 5727 5726 5727 5727 5726 5724 5719 5721 5720 5719 5717 5715 5713
5746 5744 5743 5741 5741 5740 5740 5739 5738 5737 5737 5737 5737 5736 5735 5735 5734 5733 5733 5732 5731 5730 5729 5728 5728 5727 5727 5725 5725 5725 5723 5722 5723 5722 5721 5720 5720 5717 5717 5715 5713 5713 5712 5710 5708
5742 5741 5740 5739 5737 5737 5737 5735 5734 5734 5734 5733 5733 5733 5732 5731 5730 5730 5730 5730 5730 5729 5727 5726 5725 5725 5725 5723 5723 5724 5720 5720 5719 5717 5717 5716 5713 5711 5709 5708 5708 5708 5706 5705 5702
Wind_Speed
41 40 34 39 34 27 9 19 35 38 42 48 56 65 35 27 48 68 67 63 62 60 61 64 61 58 55 52 49 47 45 42 39 37 35 33 32 32 32 32 32 32 31 31 31
40 38 30 36 40 19 5 23 39 39 39 44 58 63 45 23 52 63 61 59 56 56 56 58 59 57 55 53 50 49 46 44 42 39 37 36 35 35 35 35 36 35 34 33 32
39 32 34 36 38 16 5 22 39 39 38 40 54 66 33 32 42 57 56 55 53 49 50 51 53 53 52 51 50 48 48 46 43 41 40 38 38 38 38 38 37 36 34 33 32
36 33 35 35 39 24 25 20 37 39 36 35 42 55 41 35 36 56 55 54 51 47 43 46 47 50 45 44 49 48 47 46 45 44 42 41 41 39 39 37 36 36 35 34 32
44 36 35 35 35 27 25 26 36 37 33 31 29 43 40 30 36 50 52 51 48 46 41 40 42 44 41 38 30 41 45 44 44 44 42 41 40 38 37 37 36 34 33 32 32
45 40 37 40 31 44 30 29 37 31 30 35 38 32 33 30 34 47 50 49 48 46 42 39 39 40 42 36 33 28 30 33 35 36 36 35 34 32 31 30 32 31 30 28 25
53 46 45 39 43 19 28 37 36 33 30 34 48 45 45 33 32 42 47 47 47 45 43 40 38 37 38 39 37 31 29 27 28 30 29 29 28 27 27 27 28 27 24 22 22
58 55 48 39 33 36 39 32 28 28 31 29 29 24 39 34 42 44 45 46 46 43 42 40 36 35 36 35 36 37 34 34 33 30 28 26 25 24 23 22 23 23 22 22 23
57 60 50 35 35 33 34 39 31 26 36 28 24 35 29 31 35 44 44 44 44 42 40 40 37 35 34 35 35 34 32 31 30 28 27 25 23 23 22 22 23 23 24 25 25
55 56 47 29 28 26 33 45 42 38 30 32 34 28 26 30 32 39 41 42 41 40 39 38 37 34 34 34 32 31 31 30 30 30 29 27 26 26 26 24 25 26 28 29 30
51 46 49 38 33 23 32 34 42 40 39 34 23 21 23 24 28 31 39 40 39 38 37 37 35 34 33 32 30 30 30 31 31 30 29 28 26 28 30 26 27 29 31 33 34
42 44 48 46 39 34 28 26 25 28 32 29 25 21 18 23 26 32 36 38 37 38 37 36 33 32 31 30 29 29 29 29 30 30 30 31 27 28 31 31 31 33 35 35 36
41 36 36 38 42 38 34 24 19 18 15 19 19 20 20 20 23 27 32 36 36 36 35 34 33 32 31 30 29 29 29 30 30 31 32 33 33 30 32 35 37 39 40 42 43
43 36 31 29 32 33 30 30 27 23 21 20 17 14 15 13 16 22 27 32 34 35 35 34 33 33 33 31 31 31 30 31 31 32 33 33 37 30 33 37 40 41 43 44 44
45 39 34 25 25 25 26 25 20 20 22 20 15 15 16 15 13 16 22 26 33 33 32 31 31 31 31 31 31 31 31 31 32 33 34 33 37 33 33 34 36 37 36 36 38
37 40 36 34 27 21 19 22 23 23 19 16 14 16 14 15 16 18 18 22 27 28 29 29 30 30 30 30 30 31 31 32 33 34 36 33 36 34 31 29 32 35 37 39 39
32 33 36 34 34 26 21 15 15 16 18 17 19 18 19 18 14 14 15 16 18 21 23 24 25 25 27 29 30 30 32 33 33 32 31 29 32 28 30 31 33 34 36 37 37
25 28 30 32 32 31 25 20 16 16 16 14 16 17 17 17 18 17 14 12 13 16 18 20 22 24 25 26 27 28 28 28 29 29 28 29 31 28 28 30 34 36 35 30 23
19 21 24 27 27 30 29 25 19 14 11 12 13 14 15 17 16 15 15 14 12 12 13 14 15 16 18 19 19 20 21 23 26 28 27 26 26 28 30 28 20 11 8 10 11
16 16 18 21 22 23 26 25 26 24 18 16 14 13 12 10 10 10 11 11 11 10 9 9 10 13 13 16 17 19 21 21 23 27 27 25 22 16 11 7 8 9 8 12 16
14 13 13 14 16 19 20 20 21 23 23 22 20 16 13 12 14 12 8 7 5 5 7 6 9 10 12 13 16 17 19 22 24 24 23 11 9 9 9 10 10 9 12 16 21
13 12 10 10 11 13 14 17 19 17 17 18 19 19 18 18 16 13 12 10 7 7 7 7 7 8 9 11 13 15 16 17 15 10 10 6 8 6 8 10 11 14 17 19 19
12 10 9 9 8 8 10 11 13 13 15 15 13 12 11 12 12 12 11 10 9 9 9 8 7 6 5 5 6 6 7 8 8 7 5 6 10 11 13 14 16 17 16 16 18
13 12 8 7 8 7 6 6 7 8 8 9 10 11 11 10 7 4 4 4 4 3 3 3 4 4 4 5 5 6 7 8 6 6 9 5 11 13 16 19 18 17 17 16 20
13 13 9 7 8 8 7 6 6 5 5 5 5 5 5 5 5 5 5 4 2 2 4 6 7 7 8 8 6 8 9 9 6 11 8 10 11 17 24 14 11 16 17 17 20
14 13 10 10 11 9 10 8 7 8 8 8 6 6 5 4 3 4 4 4 5 5 6 6 6 6 9 8 10 11 15 15 13 15 16 20 16 25 27 30 30 20 21 19 22
17 9 10 12 9 10 12 13 10 9 11 12 12 12 11 9 10 8 8 8 9 9 8 8 10 9 6 11 10 8 12 9 10 14 13 14 18 14 16 16 17 19 20 20 23
Wind_Direction
337 330 330 341 352 359 243 197 185 184 185 186 196 189 164 182 194 194 196 198 200 201 202 206 209 210 212 214 216 219 223 226 228 230 234 238 243 248 253 258 262 267 271 273 277
341 346 357 356 7 22 218 185 176 178 180 184 188 190 168 156 199 191 193 195 199 200 199 204 209 211 213 216 218 221 224 227 231 233 237 240 244 249 255 260 265 271 274 276 278
2 8 6 9 15 57 97 162 171 171 172 178 187 193 192 169 169 185 187 191 194 197 200 201 206 212 214 218 220 222 226 230 232 235 238 243 247 253 258 261 265 268 271 273 276
14 11 14 15 30 81 110 134 161 160 171 174 182 194 152 159 175 182 183 186 189 192 195 199 201 210 211 222 224 226 229 233 237 240 243 247 251 253 256 259 261 263 267 270 271
26 25 32 38 20 82 108 122 147 151 162 172 174 184 188 160 172 182 181 185 185 189 188 193 196 205 208 213 216 226 230 233 238 241 243 246 248 250 252 254 256 257 259 262 265
35 37 54 48 36 46 99 115 133 143 153 157 150 170 172 172 169 178 180 182 185 187 186 191 193 197 202 202 210 216 221 225 230 235 237 238 241 242 243 246 250 252 254 255 254
37 47 51 54 67 67 58 118 137 152 153 161 157 156 178 174 170 177 177 181 186 185 186 191 193 193 198 202 202 205 216 227 228 229 232 232 234 239 242 242 243 245 239 233 238
39 47 54 47 71 91 91 103 134 148 138 145 152 149 144 166 173 176 178 181 186 185 189 193 194 195 198 200 203 207 210 214 222 225 228 232 234 236 234 231 230 232 233 240 250
35 44 49 66 81 45 47 77 84 123 146 144 142 147 159 154 163 172 177 181 186 186 189 196 195 196 200 203 203 207 211 216 223 227 231 233 234 234 234 233 233 239 246 252 259
37 38 46 57 40 42 54 71 74 82 86 129 128 130 150 164 172 174 177 181 185 188 191 196 200 200 204 209 211 212 216 219 225 228 232 234 230 235 236 239 245 250 256 263 267
40 41 40 70 53 54 70 86 63 70 77 87 107 105 134 157 166 175 179 180 185 190 192 196 201 204 208 212 215 217 220 222 226 231 235 239 238 246 247 250 256 261 264 268 273
40 42 46 54 65 65 73 75 59 69 79 79 82 89 113 147 166 173 180 183 187 192 194 197 201 206 210 214 217 220 225 230 233 236 240 244 246 255 261 262 261 263 268 273 279
38 42 46 45 49 61 69 72 80 82 65 79 94 92 91 149 160 177 184 184 188 193 194 197 201 206 211 217 221 225 231 236 241 245 248 251 251 256 265 270 271 273 276 278 280
36 42 45 48 51 55 64 73 86 88 90 102 106 106 118 117 148 179 188 189 191 194 195 198 204 209 214 219 225 230 236 241 247 252 256 260 258 256 266 271 273 277 280 282 282
39 38 47 48 50 56 53 63 75 79 82 86 87 103 129 141 153 167 190 199 195 197 199 202 208 214 220 225 230 236 242 248 253 258 259 262 265 264 265 269 273 275 276 277 278
43 42 42 51 60 60 68 72 71 72 83 86 82 85 104 130 150 163 171 190 205 205 204 207 213 219 226 232 238 244 250 254 258 262 262 268 267 267 275 274 273 274 276 278 279
44 44 44 46 52 62 68 61 65 76 84 87 87 86 85 92 110 137 166 177 192 205 216 221 223 228 233 239 244 249 253 257 259 260 264 267 267 273 276 274 276 275 275 275 278
43 47 46 46 50 56 66 68 68 71 78 93 87 81 83 92 99 104 119 150 175 195 208 219 229 235 239 243 246 249 253 255 260 263 264 267 272 273 272 274 273 275 278 282 282
30 45 48 48 47 54 60 63 73 82 85 85 88 85 85 89 96 112 125 132 143 160 177 193 206 215 225 233 239 245 249 254 260 265 268 268 273 278 279 281 284 278 277 283 285
24 27 42 49 49 45 56 58 63 72 79 88 97 97 101 111 107 102 107 119 132 147 171 191 204 217 225 231 239 246 252 258 262 269 270 276 280 278 268 253 263 251 262 283 287
16 19 21 44 47 51 48 48 57 60 66 72 79 90 102 113 116 122 141 166 178 203 204 217 219 220 233 241 248 255 260 266 271 276 281 271 268 257 255 254 258 264 277 285 292
358 10 13 12 38 44 51 52 50 55 56 59 64 70 82 93 102 113 125 137 153 177 195 203 201 214 231 238 247 256 260 261 262 264 273 268 238 263 260 253 259 277 290 294 298
350 348 357 357 1 29 37 44 44 51 53 58 59 61 60 68 82 86 95 102 110 119 125 129 136 151 171 194 212 223 239 249 258 263 266 264 262 260 257 261 273 292 295 291 301
359 326 328 341 343 344 359 13 32 31 36 50 55 55 58 55 49 62 80 75 91 99 123 150 163 174 200 216 233 249 259 256 258 261 250 261 264 265 262 269 288 287 283 295 291
351 340 316 315 325 320 331 327 327 337 348 353 4 33 43 50 37 32 30 40 21 276 264 268 265 259 252 241 237 248 255 260 261 259 271 252 250 252 275 296 287 294 285 285 292
330 335 320 302 296 309 305 302 309 300 294 297 305 305 304 313 335 343 338 322 307 301 293 293 290 293 287 280 263 255 266 272 268 264 270 263 265 261 270 281 284 281 285 290 290
295 307 321 324 311 289 291 299 297 294 295 292 282 281 282 279 272 274 279 284 284 282 277 276 280 275 278 289 284 270 263 266 264 267 268 269 264 265 270 270 275 277 283 284 291